Centralia, IL

6:14 PM CST on February 07, 2016 (GMT -0600)
Centralia Municipal

Weather History for KENL - January, 2014

Change the Weather History Date:

Sunday, January 12, 2014

  Actual Average (KSLO) Record (KSLO)
Temperature  
Mean Temperature 40 °F -  
Max Temperature 50 °F 34 °F 66 °F (2005)
Min Temperature 29 °F 18 °F -10 °F (1977)
Degree Days  
Heating Degree Days 26    
Moisture  
Dew Point 31 °F    
Average Humidity 69    
Maximum Humidity 92    
Minimum Humidity 51    
Precipitation  
Precipitation 0.00 in - - ()
Sea Level Pressure  
Sea Level Pressure 29.88 in    
Wind  
Wind Speed 10 mph (South)    
Max Wind Speed 22 mph    
Max Gust Speed 31 mph    
Visibility 10 miles    
Events      
Averages and records for this station are not official NWS values.
T = Trace of Precipitation, MM = Missing Value Source: NWS Daily Summary

Daily Weather History Graph

Daily Weather History Graph

Search for Another Location

Airport or City:

Trip Planner

Search our weather history database for the weather conditions in past years. The results will help you decide how hot, cold, wet, or windy it might be!

Date:

Astronomy

Jan. 12, 2014 Rise Set
Actual Time 7:13 AM CST 4:56 PM CST
Civil Twilight 6:44 AM CST 5:25 PM CST
Nautical Twilight 6:11 AM CST 5:58 PM CST
Astronomical Twilight 5:39 AM CST 6:30 PM CST
Moon 2:23 PM CST (1/12) 4:12 AM CST (1/12)
Length of Visible Light 10h 41m
Length of Day
9h 43m
Waxing Gibbous, 90% of the Moon is Illuminated
Jan 12
Waxing Gibbous
Jan 15
Full
Jan 23
Last Quarter
Jan 30
New
Feb 6
First Quarter

Hourly Weather History & Observations

Time (CST) Temp. Windchill Dew Point Humidity Pressure Visibility Wind Dir Wind Speed Gust Speed Precip Events Conditions
12:15 AM 34.5 °F 27.9 °F 29.7 °F 82% 29.93 in 10.0 mi West 8.1 mph - N/A   Clear
12:35 AM 34.0 °F 28.0 °F 29.3 °F 83% 29.93 in 10.0 mi West 6.9 mph - N/A   Clear
12:55 AM 33.1 °F 28.7 °F 28.9 °F 85% 29.93 in 10.0 mi West 4.6 mph - N/A   Clear
1:15 AM 33.1 °F 26.1 °F 28.9 °F 85% 29.93 in 10.0 mi WSW 8.1 mph - N/A   Clear
1:35 AM 33.3 °F 27.1 °F 29.1 °F 85% 29.95 in 10.0 mi West 6.9 mph - N/A   Clear
1:55 AM 32.4 °F 27.9 °F 28.8 °F 87% 29.95 in 10.0 mi WSW 4.6 mph - N/A   Clear
2:15 AM 32.4 °F 27.9 °F 28.4 °F 85% 29.95 in 10.0 mi WSW 4.6 mph - N/A   Clear
2:35 AM 32.0 °F 26.4 °F 28.4 °F 87% 29.95 in 10.0 mi West 5.8 mph - N/A   Clear
2:55 AM 32.0 °F 27.5 °F 28.4 °F 87% 29.96 in 10.0 mi WSW 4.6 mph - N/A   Clear
3:15 AM 31.3 °F 26.6 °F 28.2 °F 88% 29.95 in 10.0 mi WSW 4.6 mph - N/A   Clear
3:35 AM 30.9 °F 25.2 °F 27.9 °F 88% 29.95 in 10.0 mi SW 5.8 mph - N/A   Clear
3:55 AM 31.5 °F 28.1 °F 28.0 °F 87% 29.95 in 10.0 mi WSW 3.5 mph - N/A   Clear
4:15 AM 30.9 °F 23.5 °F 28.0 °F 89% 29.96 in 10.0 mi SW 8.1 mph - N/A   Clear
4:35 AM 30.9 °F 26.2 °F 27.9 °F 88% 29.96 in 10.0 mi WSW 4.6 mph - N/A   Clear
4:55 AM 31.1 °F 26.4 °F 28.0 °F 88% 29.96 in 10.0 mi SW 4.6 mph - N/A   Clear
5:15 AM 31.6 °F 28.3 °F 28.4 °F 88% 29.97 in 10.0 mi SW 3.5 mph - N/A   Clear
5:35 AM 30.0 °F - 27.1 °F 89% 29.97 in 10.0 mi Calm Calm - N/A   Clear
5:55 AM 29.1 °F 24.1 °F 26.4 °F 90% 29.98 in 10.0 mi South 4.6 mph - N/A   Clear
6:15 AM 29.3 °F 24.3 °F 27.0 °F 91% 29.98 in 10.0 mi South 4.6 mph - N/A   Clear
6:35 AM 29.1 °F 24.1 °F 26.8 °F 91% 29.99 in 10.0 mi South 4.6 mph - N/A   Clear
6:55 AM 30.0 °F 24.1 °F 27.9 °F 92% 29.98 in 10.0 mi SSE 5.8 mph - N/A   Clear
7:15 AM 31.1 °F 25.4 °F 28.4 °F 90% 29.99 in 10.0 mi SSE 5.8 mph - N/A   Clear
7:35 AM 31.5 °F 24.9 °F 28.8 °F 90% 29.99 in 10.0 mi SSE 6.9 mph - N/A   Clear
7:55 AM 32.4 °F 24.6 °F 29.7 °F 90% 29.98 in 10.0 mi SSE 9.2 mph - N/A   Clear
8:15 AM 33.3 °F 25.1 °F 30.0 °F 88% 29.99 in 10.0 mi SSE 10.4 mph - N/A   Clear
8:35 AM 34.3 °F 26.5 °F 30.4 °F 85% 30.00 in 10.0 mi SSE 10.4 mph - N/A   Clear
8:55 AM 36.0 °F 29.0 °F 31.1 °F 82% 30.00 in 10.0 mi South 9.2 mph - N/A   Clear
9:15 AM 37.4 °F 29.8 °F 31.8 °F 80% 30.00 in 10.0 mi SSE 11.5 mph - N/A   Clear
9:35 AM 38.8 °F 31.6 °F 31.8 °F 76% 30.00 in 10.0 mi SSE 11.5 mph - N/A   Clear
9:55 AM 40.1 °F 33.2 °F 32.0 °F 73% 29.98 in 10.0 mi SSE 11.5 mph 18.4 mph N/A   Clear
10:15 AM 41.4 °F 33.6 °F 32.2 °F 70% 29.98 in 10.0 mi SSE 15.0 mph 19.6 mph N/A   Clear
10:35 AM 42.3 °F 34.8 °F 32.9 °F 69% 29.98 in 10.0 mi South 15.0 mph - N/A   Clear
10:55 AM 43.3 °F 36.8 °F 33.3 °F 68% 29.98 in 10.0 mi SSE 12.7 mph - N/A   Clear
11:15 AM 44.2 °F 37.3 °F 33.6 °F 66% 29.96 in 10.0 mi SSE 15.0 mph - N/A   Clear
11:35 AM 45.5 °F 38.9 °F 34.3 °F 65% 29.93 in 10.0 mi SSE 15.0 mph - N/A   Clear
11:55 AM 46.0 °F 40.2 °F 33.6 °F 62% 29.91 in 10.0 mi SSE 12.7 mph 17.3 mph N/A   Clear
12:15 PM 46.4 °F 39.5 °F 34.0 °F 62% 29.90 in 10.0 mi SSE 17.3 mph - N/A   Clear
12:35 PM 47.5 °F - 34.0 °F 59% 29.90 in 10.0 mi South 16.1 mph 23.0 mph N/A   Clear
12:55 PM 48.0 °F - 33.8 °F 58% 29.87 in 10.0 mi SSE 17.3 mph 25.3 mph N/A   Clear
1:15 PM 48.6 °F - 34.5 °F 58% 29.86 in 10.0 mi SSE 15.0 mph 24.2 mph N/A   Clear
1:35 PM 49.1 °F - 34.2 °F 56% 29.85 in 10.0 mi SSE 17.3 mph 25.3 mph N/A   Clear
1:55 PM 49.5 °F - 33.4 °F 54% 29.84 in 10.0 mi SSE 20.7 mph 26.5 mph N/A   Clear
2:15 PM 49.8 °F - 34.2 °F 55% 29.83 in 10.0 mi SSE 19.6 mph 23.0 mph N/A   Clear
2:35 PM 50.0 °F - 33.6 °F 53% 29.82 in 10.0 mi SSE 20.7 mph 27.6 mph N/A   Clear
2:55 PM 50.0 °F - 33.1 °F 52% 29.82 in 10.0 mi SSE 19.6 mph 26.5 mph N/A   Clear
3:15 PM 50.0 °F - 32.7 °F 52% 29.80 in 10.0 mi SSE 20.7 mph 27.6 mph N/A   Clear
3:35 PM 50.0 °F - 32.5 °F 51% 29.80 in 10.0 mi SSE 19.6 mph 27.6 mph N/A   Clear
3:55 PM 49.5 °F - 32.9 °F 53% 29.80 in 10.0 mi SSE 15.0 mph 27.6 mph N/A   Clear
4:15 PM 49.3 °F - 32.4 °F 52% 29.80 in 10.0 mi SSE 18.4 mph 25.3 mph N/A   Clear
4:35 PM 48.9 °F - 32.5 °F 53% 29.79 in 10.0 mi SSE 19.6 mph 25.3 mph N/A   Clear
4:55 PM 48.2 °F - 32.2 °F 54% 29.78 in 10.0 mi SSE 18.4 mph 25.3 mph N/A   Clear
5:15 PM 47.7 °F - 32.0 °F 55% 29.78 in 10.0 mi SSE 18.4 mph 24.2 mph N/A   Clear
5:35 PM 47.3 °F - 32.4 °F 56% 29.78 in 10.0 mi SSE 21.9 mph 27.6 mph N/A   Clear
5:55 PM 47.7 °F - 32.7 °F 56% 29.78 in 10.0 mi SSE 19.6 mph 31.1 mph N/A   Clear
6:15 PM 47.3 °F - 32.9 °F 57% 29.78 in 10.0 mi SSE 18.4 mph 24.2 mph N/A   Clear
6:35 PM 47.1 °F - 32.9 °F 58% 29.78 in 10.0 mi SSE 16.1 mph 23.0 mph N/A   Clear
6:55 PM 47.1 °F - 32.9 °F 58% 29.78 in 10.0 mi SSE 16.1 mph 25.3 mph N/A   Clear
7:15 PM 47.3 °F - 32.9 °F 57% 29.77 in 10.0 mi SSE 19.6 mph 25.3 mph N/A   Clear
7:35 PM 47.3 °F - 32.7 °F 57% 29.77 in 10.0 mi SSE 16.1 mph 23.0 mph N/A   Clear
7:55 PM 46.6 °F - 32.9 °F 59% 29.78 in 10.0 mi South 19.6 mph 24.2 mph N/A   Clear
8:15 PM 47.5 °F - 32.5 °F 56% 29.78 in 10.0 mi South 15.0 mph 25.3 mph N/A   Clear
8:35 PM 47.3 °F - 32.5 °F 57% 29.78 in 10.0 mi South 15.0 mph 23.0 mph N/A   Clear
8:55 PM 46.9 °F - 32.4 °F 57% 29.79 in 10.0 mi South 16.1 mph - N/A   Clear
9:15 PM 46.6 °F - 32.4 °F 58% 29.79 in 10.0 mi South 15.0 mph - N/A   Clear
9:35 PM 46.9 °F - 32.0 °F 56% 29.79 in 10.0 mi South 15.0 mph 19.6 mph N/A   Clear
9:55 PM 46.9 °F - 32.0 °F 56% 29.78 in 10.0 mi South 13.8 mph - N/A   Clear
10:15 PM 46.2 °F 40.5 °F 32.0 °F 58% 29.78 in 10.0 mi South 12.7 mph - N/A   Clear
10:35 PM 47.1 °F - 32.0 °F 56% 29.77 in 10.0 mi South 16.1 mph - N/A   Clear
10:55 PM 47.5 °F - 32.0 °F 55% 29.76 in 10.0 mi South 18.4 mph 21.9 mph N/A   Clear
11:15 PM 47.5 °F - 32.0 °F 55% 29.75 in 10.0 mi South 16.1 mph 21.9 mph N/A   Clear
11:35 PM 46.9 °F - 32.0 °F 56% 29.74 in 10.0 mi South 13.8 mph - N/A   Clear
11:55 PM 47.1 °F - 32.0 °F 56% 29.74 in 10.0 mi South 15.0 mph 21.9 mph N/A   Clear